7 * 24
多渠道服务支持
STARLINK-37334(NORAD编号68700)是美国SpaceX公司星链(Starlink)星座中的一颗低轨互联网通信卫星。作为星链计划的组成部分,它运行于近地轨道,属于星座批量部署的卫星之一,主要承担为全球覆盖区域提供高速宽带互联网接入服务的任务,尤其服务于传统网络覆盖不足的偏远地区。星链星座是目前全球规模最大的低轨卫星互联网项目,这颗卫星与其他数千颗星链卫星共同组网,支撑天基通信系统的运行,助力实现全球无缝互联的建设目标。
美国
(US)
| 数据来源 | 国际轨道数据 |
| 星历时间: | 2026-05-24T12:00:02+0800 1天前 查看轨道信息 |
| 半长轴: | 6816.128km |
| 偏心率: | 0.0001212 |
| 轨道倾角: | 53.160° |
| 近地点辐角 | 119.795° |
| 升交点赤经 | 43.955° |
| 平近点角 | 198.801° |
| 近地点: | 437.164km |
| 远地点: | 438.818km |
| 周期: | 93.340分钟 |
| 每日圈数: | 15.427524 |